World > North America > United States > Illinois > Bible Grove

Bible Grove, IL Hourly Weather Conditions

Feedback E-mail the Weather

Quick WX

Bible Grove, IL Weather Maps

°F °C°F °C
Bible Grove Weather Map
UTC Time: 2/5/2023, 16:31
Your Time:

Bible Grove, IL Regional Weather

Expires:202302051700;;846049
ASUS43 KLOT 051610
RWRIL 

ILLINOIS REGIONAL WEATHER ROUNDUP
NATIONAL WEATHER SERVICE CHICAGO/ROMEOVILLE IL
1000 AM CST SUN FEB 05 2023

NOTE: "FAIR" INDICATES FEW OR NO CLOUDS BELOW 12,000 FEET WITH NO
SIGNIFICANT WEATHER AND/OR OBSTRUCTIONS TO VISIBILITY.

* THESE STATIONS ARE NOT UNDER NWS QUALITY CONTROL. THEY ALSO MAY NOT
  REPORT WEATHER SUCH AS PRECIPITATION OR FOG.


ILZ064>066-069>071-074>076-080>082-084>086-088>090-092>094-051700-
SOUTH-CENTRAL ILLINOIS
  
CITY           SKY/WX    TMP DP  RH WIND       PRES   REMARKS
CARBONDALE     SUNNY     46  35  65 SW16      30.08S                  
CAIRO*         CLOUDY    45  35  67 W9G16     30.13R                  
EFFINGHAM*     SUNNY     45  34  64 SW13G20   30.03S                  
MARION         MOSUNNY   45  36  70 SW16      30.08S                  
MT. VERNON     SUNNY     46  34  62 SW16      30.06R                  
METROPOLIS*    CLOUDY    47  33  58 SW10      30.12S                  
$$


SKY/WX - Weather  TMP - Temperature  DP - Dew Point  RH - Humidity
WIND - Wind Direction/Speed PRES - Barometric Pressure VSB - Visibility
WCI - Wind Chill Index E13G22 Wind - East Wind 13 mph/Gusts of 22 mph

Trending Headlines

Trending Entertainment Headlines

Bible Grove Radar Loop

Use the map search tool if you want to place a location marker on the radar map...

Bible Grove Quick Facts

National Two Day Weather Forecast


E-mail the Bible Grove Weather Forecast

Voice your opinion or tell us about page issues...